Regional Weather Roundup
Issued by NWS Grand Forks, ND

Home | Current Version | Previous Version | Text Only | Print | Product List | Glossary Off
Versions: 1 2 3 4 5 6 7 8 9 10 11 12 13 14 15 16 17 18 19 20 21 22 23 24 25 26 27 28 29 30 31 32 33 34 35 36 37 38 39 40 41 42 43 44 45 46 47 48 49 50

000
ASUS43 KFGF 292031
RWRFGF
PRAIRIE TO PINES  WEATHER ROUNDUP
NATIONAL WEATHER SERVICE EASTERN NORTH DAKOTA/GRAND FORKS ND
300 PM CDT WED JUL 29 2015

 **SATELLITE DATA USED TO AUGMENT SKY COVER AT AUTOMATED STATIONS**
 *****  WEATHER ACROSS EASTERN NORTH DAKOTA  *****

CITY           SKY/WX    TMP DP  RH WIND       PRES   REMARKS
GRAND FORKS    PTSUNNY   79  54  41 W22G35    29.81R
GRAND FRKS AFB SUNNY     79  54  41 NW24G40   29.83R
GRAND FRKS NWS   N/A     79 N/A N/A NW12        N/A
DEVILS LAKE    MOSUNNY   79  52  38 W28G38    29.88R
FARGO          SUNNY     80  50  34 W28G45    29.88S
WAHPETON ARPT  CLEAR     81  46  30 NW28G38   29.93S
$$

 ***** WEATHER ACROSS CENTRAL AND WESTERN NORTH DAKOTA  *****

CITY           SKY/WX    TMP DP  RH WIND       PRES   REMARKS
BISMARCK       PTSUNNY   78  47  33 W22G30    30.05S
MINOT          PTSUNNY   81  50  33 W23G35    29.97R
JAMESTOWN      MOSUNNY   79  52  38 W25G37    29.95S
MINOT AFB      MOSUNNY   80  53  39 W17G33    29.95R
GARRISON         N/A     77  52  41 W18G33    30.02R
WILLISTON      MOSUNNY   82  46  28 W22G29    30.05S
DICKINSON      MOSUNNY   80  46  30 W22G30    30.10S
HETTINGER      MOSUNNY   81  40  23 W23G31    30.15F
$$

 *****  OTHER AIRPORT OBSERVATIONS IN OUR AREA  *****

CITY           SKY/WX    TMP DP  RH WIND       PRES   REMARKS
WALHALLA       FAIR      77  50  38 MISG      29.78R
GRAFTON AIRPOR FAIR      79  52  38 NW26G38   29.81R
VALLEY CITY AR FAIR      75  54  46 W23G32    29.94S
CANDO          FAIR      77  54  44 NW24G38   29.88S
CAVALIER APRT  FAIR      77  54  44 NW22G33   29.78R
GWINNER        FAIR      81  54  39 W23G33    29.97S
ROLLA            N/A     72  55  56 W18G30    29.90R
 ***** THE ABOVE OBSERVATIONS ARE NON NWS ARE NOT QUALITY
       CONTROLLED AND MAY MIS-REPORT RAIN FOR SNOW...
$$

  *****  WEATHER ACROSS NORTHERN MINNESOTA  *****

CITY           SKY/WX    TMP DP  RH WIND       PRES   REMARKS
FLAG ISLAND    CLOUDY    70  55  60 W23G30    29.64R
WARROAD        MOSUNNY   73  61  64 W20G32    29.70R
ROSEAU         MOSUNNY   75  59  57 W22G31    29.72R
HALLOCK        MOSUNNY   77  48  36 W36G45    29.76R
THF RVR FALLS  PTSUNNY  N/A N/A N/A W23G30    29.80R
BAUDETTE       CLOUDY    71  56  58 W17G33    29.69R
WASKISH        PTSUNNY   73  57  56 W28G38    29.74R
CROOKSTON      MOSUNNY   79  52  38 NW30G39   29.82S
$$
  *****  WEATHER ACROSS CENTRAL AND WEST MINNESOTA  *****

CITY           SKY/WX    TMP DP  RH WIND       PRES   REMARKS
FOSSTON        MOSUNNY   75  55  50 W25G37    29.84R
BEMIDJI        PTSUNNY   76  53  43 W29G40    29.81R
PARK RAPIDS    MOSUNNY   79  54  41 W30G41    29.86R
ELBOW LAKE     FAIR      78  55  45 W24G32    29.95R
WADENA         MOSUNNY   79  54  41 W17G35    29.89S
DETROIT LAKES  SUNNY     77  50  38 NW21G36   29.90S
MOORHEAD       SUNNY     79  55  44 NW20G35   29.90R
FERGUS FALLS   SUNNY     79  52  38 NW25G36   29.91S
MORRIS MN      MOSUNNY   81  55  41 W20G33    29.96S
STAPLES        MOSUNNY   77  52  41 W23G36    29.89S
$$
  *****  WEATHER ELSEWHERE ACROSS MINNESOTA  *****

CITY           SKY/WX    TMP DP  RH WIND       PRES   REMARKS
DULUTH         PTSUNNY   73  56  54 W15G24    29.79S
INTRNTL FALLS  LGT RAIN  65  58  78 W15G23    29.68R
ELY            CLOUDY    64  55  72 W15G29    29.74R
CLOQUET        CLOUDY    75  52  43 W14G23    29.81S
WHEATON        MOSUNNY   79  54  41 W23G33    29.97R
BRAINERD       PTSUNNY   75  53  46 W25G35    29.87R
HIBBING        LGT RAIN  75  57  53 W9G25     29.77R
ALEXANDRIA     MOSUNNY   78  53  41 W26G41    29.96R
SAINT CLOUD    MOSUNNY   81  52  36 W22G35    29.92S
MINNEAPOLIS    MOSUNNY   82  54  37 W23G39    29.94F
$$

  *****  WEATHER ACROSS SOUTH DAKOTA  *****

CITY           SKY/WX    TMP DP  RH WIND       PRES   REMARKS
SIOUX FALLS    MOSUNNY   81  54  39 W16G25    30.10F
BROOKINGS      SUNNY     81  50  34 W25G37    30.08F
WATERTOWN      SUNNY     80  51  36 W24G32    30.05S
HURON          SUNNY     84  49  29 W24       30.07S
SISSETON         N/A     81  54  39 NW29G37   29.96R
ABERDEEN       SUNNY     84  48  28 W23G35    30.03S
MITCHELL       MOSUNNY   86  50  28 W12G25    30.10F
PIERRE         SUNNY     88  40  18 W23G29    30.10F
MOBRIDGE       MOSUNNY   84  47  27 NW24G33   30.06F
RAPID CITY     SUNNY     80  41  24 CALM      30.21F
$$

  *****  SOME WEATHER IN NEARBY STATES *****

CITY           SKY/WX    TMP DP  RH WIND       PRES   REMARKS
GLASGOW MT     SUNNY    N/A N/A N/A W14       30.11S
GREAT FALLS MT SUNNY     78  35  21 W13G25    30.18F
CHEYENNE WY    SUNNY     78  47  33 SE9       30.34F
SCOTTSBLUFF NE SUNNY     83  48  29 S10       30.24F
OMAHA NE       MOSUNNY   85  54  34 NW8       30.15F
DES MOINES IA  MOSUNNY   85  53  33 NW12G22   30.12R
DAVENPORT IA   MOSUNNY   82  57  42 NW14G20   30.07F
CHICAGO IL     MOSUNNY   87  49  26 NW16      29.98S
EAU CLAIRE WI  SUNNY     82  54  37 W20G31    29.91S
LA CROSSE WI   SUNNY     84  52  33 W24G35    29.96S
$$

  *****  SOME NATIONAL WEATHER *****

CITY           SKY/WX    TMP DP  RH WIND       PRES   REMARKS
LA GUARDIA NY  PTSUNNY   94  62  34 S15G23    29.91F HX  94
RALEIGH NC     MOSUNNY   90  69  50 CALM      29.99F HX  94
ATLANTA GA     LGT RAIN  84  70  61 CALM      29.96F
NEW ORLEANS LA MOSUNNY   97  70  41 N8        29.97F HX 103
OKLAHOMA CITY  MOSUNNY   95  72  47 SE10      30.04F HX 103
ALBUQUERQUE NM TSTM      82  54  37 N10       30.28F
SALT LAKE CITY MOSUNNY   81  31  16 NW10      30.27F
LOS ANGELES CA MOSUNNY   73  63  70 W12       29.96F
BOISE ID       SUNNY     84  30  14 SE3       30.22F
SEATTLE WA     MOSUNNY   84  51  31 N8        30.17F
$$

*** WEATHER ACROSS MANITOBA...SASKATCHEWAN AND ONTARIO ***
                ***ONTARIO***

CITY           SKY/WX    TMP DP  RH WIND       PRES   REMARKS
GERALDTON      CLOUDY    70  55  60 SW21G30   29.53F
THUNDER BAY    PTSUNNY   75  59  57 W22G40    29.60S
SIOUX LOOKOUT  LGT RAIN  64  63  94 W13       29.47R
TORONTO        PTSUNNY   90  64  43 SE13      29.88F HX  91
BIG TROUT LK   CLOUDY    66  61  82 S7        29.26S
PICKLE LAKE    PTSUNNY   64  61  88 W20G30    29.35R
DRYDEN         CLOUDY    66  59  77 W24G36    29.53R
KENORA         LGT RAIN  63  59  88 W16G28    29.63R
$$
                *** MANITOBA***

CITY           SKY/WX    TMP DP  RH WIND       PRES   REMARKS
BRANDON        PTSUNNY   77  54  44 NW32G40   29.83R
DAUPHIN        SUNNY     75  54  46 NW18G31   29.75R
ISLAND LAKE    LGT RAIN  68  64  88 NW12      29.32R
PILOT MOUND      N/A     73  52  46 NW25G39     N/A
THE PAS        PTSUNNY   73  57  56 NW17      29.71R
THOMPSON       LGT RAIN  59  55  88 N14G22    29.62R
WINNIPEG       PTSUNNY   77  55  47 W26G40    29.69R
LYNN LAKE        N/A    N/A N/A N/A MISG        N/A
CHURCHILL      LGT RAIN  50  50 100 N16       29.60R FOG
GILLAM         DRIZZLE   55  54  94 N25G41    29.46R
$$
                ***SASKATCHEWAN***

CITY           SKY/WX    TMP DP  RH WIND       PRES   REMARKS
ESTEVAN        MOSUNNY   81  54  39 W18G35    29.99R
KINDERSLEY     MOSUNNY   79  45  29 W13G20    30.03S
LLOYDMINSTER   PTSUNNY   72  45  37 W21G28    30.01R
PRINCE ALBERT  MOSUNNY   77  55  47 NW20G28   29.86R
REGINA         MOSUNNY   77  52  41 NW23G31   29.99R
YORKTON        MOSUNNY   77  59  53 NW17G29   29.86R
N. BATTLEFORD  SUNNY     75  45  33 W21G31    29.98S
LA RONGE       PTSUNNY   73  52  46 W10G22    29.81R
SASKATOON      MOSUNNY   77  50  38 NW18G29   29.96R
SWIFT CURRENT  MOSUNNY   77  48  36 W14G26    30.07S
$$
NOTE: THESE ARE AUTOMATED STATIONS WITH LIMITED QUALITY CONTROL
      "FAIR" INDICATES FEW OR NO CLOUDS BELOW 12,000 FEET WITH NO
      SIGNIFICANT WEATHER AND/OR OBSTRUCTIONS TO VISIBILITY.
      SKY/WX - SKY CONDITION AND SIGNIFICANT WEATHER.
      TMP - AIR TEMPERATURE.    DP   - DEWPOINT TEMPERATURE.
      RH  - RELATIVE HUMIDITY.  PRES - PRESSURE.
      HX  - HEAT INDEX.         WCI  - WIND CHILL INDEX.
$


USA.gov is the U.S. government's official web portal to all federal, state and local government web resources and services.